Regional Weather Roundup
Issued by NWS

Home | Current Version | Previous Version | Graphics & Text | Print | Product List | Glossary On
Versions: 1 2 3 4 5 6 7 8 9 10 11 12 13 14 15 16 17 18 19 20 21 22 23 24 25 26 27 28 29 30 31 32 33 34 35 36 37 38 39 40 41 42 43 44 45 46 47 48 49 50
834
ASUS43 KFSD 261210
RWRSD

WEATHER ROUNDUP FOR SOUTH DAKOTA
NATIONAL WEATHER SERVICE SIOUX FALLS SD
700 AM CDT SAT MAY 26 2018

NOTE: "FAIR" INDICATES FEW OR NO CLOUDS BELOW 12,000 FEET WITH NO
SIGNIFICANT WEATHER AND/OR OBSTRUCTIONS TO VISIBILITY.


SDZ001>005-009-010-012>017-261300-
NORTHWEST AND NORTH CENTRAL SOUTH DAKOTA

CITY           SKY/WX    TMP DP  RH WIND       PRES   REMARKS
BUFFALO          N/A     60  48  64 E3        29.78S
FAITH            N/A     64  51  62 CALM      29.83F
MOBRIDGE       CLEAR     58  54  86 CALM      29.77S
$$

SDZ012>016-024>037-041>051-057-063-072>074-261300-
SOUTHWEST AND SOUTH CENTRAL SOUTH DAKOTA

CITY           SKY/WX    TMP DP  RH WIND       PRES   REMARKS
RAPID CTY ARPT CLEAR     56  52  86 NW3       29.86S
PIERRE         CLEAR     62  60  93 W5        29.79S
CUSTER         CLEAR     50  46  86 NW5       29.99F
ELLSWORTH AFB  CLEAR     61  56  84 CALM      29.86S
PHILIP         CLEAR     58  57  97 W3        29.83R
PINE RIDGE     CLEAR     57  53  86 NW5       29.88S
SPEARFISH      FAIR      57  50  77 S7        29.89S
WINNER         FAIR      63  57  81 SW7       29.83R
$$

SDZ004>011-016>023-039-040-261300-
NORTHEAST SOUTH DAKOTA

CITY           SKY/WX    TMP DP  RH WIND       PRES   REMARKS
ABERDEEN       CLEAR     59  54  83 SW3       29.75R
WATERTOWN      SUNNY     60  56  86 S3        29.76R
BROOKINGS      SUNNY     63  56  78 CALM      29.78
SISSETON         N/A     70  56  61 CALM      29.70R
$$

SDZ017-020-022-023-036>040-048>070-261300-
SOUTHEAST SOUTH DAKOTA

CITY           SKY/WX    TMP DP  RH WIND       PRES   REMARKS
SIOUX FALLS    SUNNY     62  58  86 CALM      29.78R
HURON          CLEAR     61  57  87 E3        29.77R
CHAMBERLAIN    CLEAR     62  61  99 CALM      29.81S
MITCHELL       CLEAR     67  58  72 W6        29.78R
YANKTON        CLEAR     64  60  87 CALM      29.79R
$$

ABBREVIATIONS USED IN REMARKS
   TC - TEMPERATURE IN CELSIUS
  WCI - WIND CHILL INDEX
   HX - HEAT INDEX
  VSB - VISIBILITY





USA.gov is the U.S. government's official web portal to all federal, state and local government web resources and services.